| time (UTC) | temp F | wind direction | speed MPH | gust MPH | rain 1hr in | rain 24hr in | rain mn in | humidity % | barometer mb |
| 20260505041548 | 70 | 307 | 3.0 | 8.0 | 0.00 | 0.00 | 0.00 | 45 | 998.6 |
| 20260505014546 | 80 | 293 | 3.0 | 11.0 | 0.00 | 0.00 | 0.00 | 33 | 997.5 |
| 20260505013546 | 80 | 286 | 5.0 | 11.0 | 0.00 | 0.00 | 0.00 | 33 | 997.6 |
| 20260505012546 | 80 | 294 | 4.0 | 10.0 | 0.00 | 0.00 | 0.00 | 32 | 997.7 |
| 20260505011546 | 80 | 356 | 4.0 | 10.0 | 0.00 | 0.00 | 0.00 | 32 | 997.8 |
| 20260505010545 | 81 | 359 | 5.0 | 10.0 | 0.00 | 0.00 | 0.00 | 32 | 997.8 |
| 20260505005545 | 81 | 320 | 5.0 | 14.0 | 0.00 | 0.00 | 0.00 | 31 | 997.9 |
| 20260505004545 | 81 | 329 | 3.0 | 14.0 | 0.00 | 0.00 | 0.00 | 30 | 998.0 |
| 20260505003545 | 82 | 334 | 7.0 | 12.0 | 0.00 | 0.00 | 0.00 | 30 | 998.1 |
| 20260505002545 | 82 | 10 | 5.0 | 12.0 | 0.00 | 0.00 | 0.00 | 29 | 998.2 |
| 20260505001545 | 83 | 280 | 3.0 | 11.0 | 0.00 | 0.00 | 0.00 | 29 | 998.2 |
| 20260505000545 | 84 | 264 | 3.0 | 11.0 | 0.00 | 0.00 | 0.00 | 27 | 998.2 |
| 20260504235545 | 84 | 339 | 7.0 | 10.0 | 0.00 | 0.00 | 0.00 | 27 | 998.3 |
| 20260504234545 | 84 | 312 | 3.0 | 13.0 | 0.00 | 0.00 | 0.00 | 27 | 998.5 |
| 20260504233545 | 84 | 320 | 11.0 | 11.0 | 0.00 | 0.00 | 0.00 | 27 | 998.6 |
| 20260504232545 | 84 | 329 | 5.0 | 13.0 | 0.00 | 0.00 | 0.00 | 29 | 998.6 |
| 20260504231544 | 84 | 277 | 4.0 | 13.0 | 0.00 | 0.00 | 0.00 | 27 | 998.7 |
| 20260504201543 | 80 | 329 | 7.0 | 9.0 | 0.00 | 0.00 | 0.00 | 33 | 1001.1 |
| 20260504200543 | 80 | 283 | 3.0 | 9.0 | 0.00 | 0.00 | 0.00 | 36 | 1001.2 |
| 20260504195543 | 79 | 334 | 4.0 | 11.0 | 0.00 | 0.00 | 0.00 | 32 | 1001.4 |
| 20260504194543 | 80 | 314 | 5.0 | 10.0 | 0.00 | 0.00 | 0.00 | 37 | 1001.4 |
| 20260504110537 | 56 | 235 | 2.0 | 7.0 | 0.00 | 0.00 | 0.00 | 63 | 1002.8 |